Regional Weather Roundup
Issued by NWS Bismarck, ND

Home | Current Version | Previous Version | Text Only | Print | Product List | Glossary On
Versions: 1 2 3 4 5 6 7 8 9 10 11 12 13 14 15 16 17 18 19 20 21 22 23 24 25 26 27 28 29 30 31 32 33 34 35 36 37 38 39 40 41 42 43 44 45 46 47 48 49 50
000
ASUS43 KBIS 250602
RWRBIS

NWR BROADCAST TEXT
NATIONAL WEATHER SERVICE BISMARCK ND
100 AM CDT THU AUG 25 2016

NOTE: "FAIR" INDICATES FEW OR NO CLOUDS BELOW 12,000 FEET WITH NO
SIGNIFICANT WEATHER AND/OR OBSTRUCTIONS TO VISIBILITY.


CITY           SKY/WX    TMP DP  RH WIND       PRES   REMARKS
WILLISTON      MOCLDY    55  46  71 NW13      30.15S
MINOT          MOCLDY    56  52  86 W21       30.02S
MINOT AFB      CLOUDY    55  51  89 NW18G24   30.01S
BISMARCK       CLOUDY    58  50  75 W15G23    30.08S
DICKINSON      CLOUDY    52  46  80 W15       30.14S
GARRISON         N/A     54  50  86 W13       30.06R
HETTINGER ARPT CLEAR     51  46  83 W13       30.19S
JAMESTOWN      CLEAR     57  50  77 W15       30.00S
CARRINGTON     FAIR      55  52  88 W17G23    30.00S
HAZEN          CLOUDY    57  46  67 W16G26    30.10F
OAKES            N/A    N/A N/A N/A MISG        N/A
STANLEY        CLOUDY    52  52 100 NW12      30.11S
$$

CITY           SKY/WX    TMP DP  RH WIND       PRES   REMARKS
GRAND FORKS    PTCLDY    58  51  78 SW9       29.89S
GRAND FORKS AF PTCLDY    59  51  76 W10       29.90S
DEVILS LAKE    PTCLDY    58  55  90 W15       29.94R
FARGO          CLEAR     61  50  67 W12       29.96R
CAVALIER       FAIR      57  54  88 W7        29.86S
GRAFTON        FAIR      55  54  94 SW8       29.89S
GWINNER        FAIR      57  52  82 W9        30.02R
LANGDON        CLOUDY    55  55 100 W10       29.89S
ROLLA          CLOUDY    55  55 100 NW12G17   29.94R
$$

CITY           SKY/WX    TMP DP  RH WIND       PRES   REMARKS
ABERDEEN       CLEAR     60  49  66 W9        30.07R
MOBRIDGE       PTCLDY    62  46  55 NW12      30.09
BUFFALO          N/A     50  43  77 NW12      30.16F
RAPID CITY     MOCLDY    57  45  64 N10       30.24R
GLASGOW        CLOUDY    52  44  74 SW3       30.23
SIDNEY         CLOUDY    55  47  74 W13       30.19S
WOLF POINT     CLOUDY    57  47  69 W7        30.22S
GLENDIVE       CLOUDY    53  45  74 NW10      30.23R
MILES CITY     CLOUDY    57  44  62 NW12      30.26S
BAKER          CLOUDY    53  44  71 NW13      30.23F
$$

CITY           SKY/WX    TMP DP  RH WIND       PRES   REMARKS
BILLINGS       CLOUDY    52  39  61 NW7       30.33F
GREAT FALLS    CLOUDY    54  41  61 S5        30.33F
$$





USA.gov is the U.S. government's official web portal to all federal, state and local government web resources and services.